Wetbulb
77.20 77.28 77.59 74.14 65.45 63.34 58.54 59.46 63.76 61.44 62.19 65.87 66.40 65.35 64.49 65.79 62.56 60.36 70.67 71.63 73.30 74.37 75.49 76.48 77.05 76.48 75.56 75.59 76.41 76.81 77.16 76.94 76.86 77.09 77.30 77.00 76.69 76.52 77.07 77.24 76.98 76.74 75.92 76.84 77.16 76.95 76.63 76.84 76.70
77.08 74.75 74.19 70.18 60.77 56.58 57.97 62.36 60.65 62.78 65.36 67.55 67.67 66.60 65.36 64.16 67.82 67.70 69.00 72.07 73.53 74.63 75.42 76.08 76.61 76.92 75.45 76.11 76.84 76.80 77.22 77.01 76.68 76.39 76.89 76.92 76.53 76.62 76.62 77.01 76.56 76.78 77.16 77.19 77.15 76.98 77.04 76.59 76.53
74.54 73.58 69.83 65.60 61.94 56.90 57.74 62.55 63.37 64.96 66.66 66.84 65.48 67.13 65.38 64.26 67.35 68.62 71.55 72.51 73.89 74.90 75.86 76.77 76.78 76.52 75.70 76.51 76.64 76.94 77.05 76.59 76.55 76.28 77.15 76.50 76.50 76.96 77.25 77.25 77.03 77.17 77.06 77.06 76.95 77.31 76.81 76.70 76.89
73.24 73.44 71.64 62.09 59.15 61.64 61.86 63.69 65.14 64.88 66.41 67.04 65.59 63.79 67.39 69.28 68.89 71.16 72.37 73.02 74.26 74.98 76.11 76.23 76.61 76.03 75.78 76.59 76.80 76.89 76.64 77.11 76.64 76.89 77.07 76.86 77.16 76.64 76.59 77.15 76.67 77.03 77.07 77.09 77.26 77.23 76.76 76.56 76.37
74.52 71.85 63.81 60.37 60.52 62.76 64.54 65.08 64.93 63.79 64.80 65.17 64.88 63.00 65.50 70.55 72.53 72.65 72.57 73.04 74.31 75.27 76.34 76.50 76.56 75.58 75.87 76.63 76.69 76.40 76.73 76.69 76.81 77.20 77.13 77.50 77.43 76.95 76.89 77.09 77.03 76.95 77.01 77.04 76.42 76.25 76.09 75.81 76.26
71.70 70.33 59.87 57.61 60.31 63.41 64.93 65.64 64.94 64.40 65.24 64.77 64.32 64.86 66.66 72.22 71.60 72.49 73.15 73.80 74.82 74.65 75.44 76.09 76.48 76.54 76.93 76.94 76.12 76.95 76.76 76.59 76.75 77.04 77.17 77.01 76.88 77.22 76.91 77.09 76.98 77.04 76.81 76.26 76.29 75.93 76.03 75.53 76.34
69.44 65.12 59.24 59.60 60.65 62.18 63.68 66.43 64.56 63.94 63.58 63.42 65.53 63.09 67.43 70.35 72.50 73.37 73.85 74.26 74.30 74.77 74.70 74.67 75.57 76.94 76.72 76.69 76.76 77.34 77.26 76.99 77.10 77.25 77.30 77.00 76.99 77.26 77.14 76.78 76.82 77.04 76.73 76.65 76.41 75.97 76.66 76.59 77.30
71.64 67.40 60.02 60.88 59.44 60.61 64.87 65.62 65.81 64.24 63.66 67.41 67.70 62.77 65.13 70.30 73.09 73.42 73.61 73.34 73.77 74.48 74.83 76.03 76.67 77.38 76.72 76.14 76.97 77.24 77.51 77.53 77.53 76.59 76.90 77.06 77.03 77.07 76.61 76.96 76.83 77.18 76.95 76.62 76.59 76.12 75.94 76.50 76.62
71.50 62.56 59.17 59.87 60.42 62.59 66.03 64.44 66.89 67.62 65.95 67.08 67.42 67.37 69.87 71.86 72.62 72.03 71.72 71.95 73.22 73.84 74.57 75.13 75.68 76.53 76.89 76.60 77.55 77.72 77.28 77.39 77.50 77.26 76.61 77.50 78.48 77.68 77.27 76.85 76.82 76.87 76.84 76.48 75.95 75.42 74.97 76.50 76.55
67.42 61.01 60.83 64.17 64.84 64.54 65.51 65.40 65.58 64.85 64.75 65.58 67.20 69.75 70.91 71.38 71.09 69.86 69.84 70.13 71.05 72.40 73.69 74.89 75.23 75.30 75.65 74.64 76.80 78.42 77.43 78.40 78.07 78.17 78.10 77.12 77.44 78.07 76.27 76.98 76.93 77.01 76.70 76.45 75.81 74.89 75.75 76.95 76.44
65.99 62.20 64.55 64.71 65.37 67.02 65.69 65.53 66.75 64.50 62.57 65.74 66.28 68.22 70.07 70.53 69.92 69.21 69.26 69.79 70.78 71.81 73.60 74.47 75.29 75.98 75.29 75.00 75.63 76.50 77.16 77.03 77.49 78.04 78.07 77.91 77.53 77.68 77.18 77.34 78.65 78.68 76.71 76.93 76.12 76.64 75.74 74.96 76.75
63.39 65.60 65.82 66.29 66.95 66.32 64.73 66.73 65.20 65.29 65.39 68.05 68.99 70.01 69.91 69.77 69.82 69.87 69.03 69.26 70.05 71.84 73.29 74.26 75.62 76.18 75.96 76.18 75.70 76.41 75.99 76.65 76.35 77.65 77.99 77.52 76.82 77.04 77.58 77.19 77.94 77.21 76.42 76.18 76.14 75.46 76.05 74.85 74.82
64.08 65.08 66.35 67.10 66.72 66.90 67.16 65.16 65.15 65.05 67.34 68.70 69.80 70.19 69.72 69.75 70.45 71.46 70.97 70.88 70.66 71.04 73.02 73.93 75.55 76.67 76.71 76.64 76.60 75.91 75.20 75.82 76.68 76.85 77.42 78.47 77.60 77.89 77.95 76.87 77.64 78.62 78.23 76.60 75.30 77.02 76.79 76.35 75.61
65.69 65.46 65.71 67.03 66.97 67.05 65.51 65.44 65.73 66.24 67.82 68.05 69.02 69.42 70.21 70.56 71.13 72.11 71.64 71.00 71.26 71.46 71.75 73.55 75.07 76.35 76.44 76.32 77.08 75.70 75.42 74.95 77.03 77.05 77.46 77.85 77.71 77.97 77.12 77.05 77.01 78.10 78.19 78.71 78.25 76.45 75.69 75.69 75.29
65.75 62.89 64.90 65.87 66.62 65.70 66.96 63.48 63.02 67.82 67.57 67.20 68.40 69.30 69.98 70.72 71.80 72.22 73.12 72.44 72.68 72.43 72.48 73.03 74.68 75.53 75.91 76.15 76.38 75.77 75.26 74.26 75.54 77.16 78.53 78.23 79.45 79.23 78.31 76.87 76.51 77.12 78.36 77.68 77.37 77.72 74.77 75.47 73.92
63.12 63.33 59.77 64.28 65.74 65.60 65.65 60.65 65.36 68.06 66.92 66.27 67.60 68.60 69.65 70.68 71.41 72.93 73.57 73.88 74.35 73.87 73.76 73.57 73.60 74.40 75.11 75.48 76.13 75.53 75.94 76.57 76.51 77.18 77.49 78.47 78.96 79.30 78.74 77.30 76.71 78.26 77.60 77.69 79.49 78.50 78.81 74.83 75.34
61.62 56.99 58.04 60.74 65.48 64.33 64.41 62.60 66.02 67.87 67.06 65.49 67.02 68.32 69.19 70.43 71.73 73.00 73.72 74.46 74.66 75.20 75.36 74.74 74.96 74.76 75.44 76.54 76.62 76.91 77.13 76.56 77.31 77.55 77.60 78.45 78.71 79.15 80.18 79.58 77.20 78.35 77.04 76.67 76.52 76.56 79.25 77.72 75.24
55.71 55.82 58.29 58.39 63.20 63.91 62.41 62.44 65.95 66.90 66.54 65.68 66.61 67.27 68.58 69.32 70.62 72.65 73.52 74.49 75.00 75.46 76.26 76.44 75.66 76.22 76.49 76.58 77.11 76.92 77.05 77.46 77.76 77.79 78.06 78.78 78.61 78.86 78.71 77.70 78.12 77.59 79.45 79.08 75.69 77.55 77.13 78.48 76.09
58.21 56.57 56.43 60.07 63.12 62.54 61.76 61.75 65.46 66.71 66.45 66.04 66.09 66.72 67.37 68.50 70.76 72.40 73.21 74.00 74.44 75.39 75.69 76.65 76.60 76.77 76.50 76.10 75.45 75.60 75.18 76.37 77.12 77.84 79.31 79.69 79.41 79.25 79.30 77.97 78.10 77.94 76.71 77.03 77.21 76.32 76.76 75.80 77.50
57.29 56.00 56.09 60.41 62.94 62.65 61.68 60.97 64.45 66.68 66.71 67.28 66.78 66.98 67.39 67.34 68.94 70.82 72.22 72.98 73.41 74.31 75.56 76.59 76.90 77.51 77.28 76.56 76.73 76.47 76.47 76.20 77.01 77.82 78.59 79.86 79.54 79.75 79.25 79.35 78.92 78.76 76.19 77.04 77.29 76.29 74.70 74.84 76.69
57.16 55.61 56.50 57.42 61.53 62.66 61.31 58.65 62.07 65.74 67.46 68.02 68.56 68.78 68.56 68.47 68.83 69.99 71.15 71.93 72.91 73.71 74.99 75.91 77.04 77.69 77.92 77.94 77.29 77.29 77.50 77.08 76.24 76.53 77.18 78.44 79.64 79.74 79.81 79.76 80.80 79.56 77.90 75.86 78.18 76.85 76.33 74.12 75.38
55.13 57.54 58.57 59.20 58.08 54.82 60.59 52.90 58.07 62.64 64.72 66.59 67.68 68.71 69.11 69.28 69.69 70.59 71.00 71.74 72.44 73.58 74.95 76.24 77.18 77.59 77.97 78.41 77.13 77.25 75.16 74.16 74.85 75.61 75.89 76.91 79.04 79.22 79.32 79.76 79.82 79.55 78.41 78.03 77.69 78.00 77.52 76.86 74.05
54.81 60.90 59.27 58.43 57.33 55.09 57.11 53.70 57.68 60.53 61.67 64.79 67.16 68.50 69.40 70.34 70.52 70.03 70.76 71.94 73.04 73.95 74.45 75.99 77.04 77.75 78.10 78.08 78.25 76.63 76.15 75.89 76.22 76.09 77.00 77.91 78.18 78.74 78.50 79.37 79.71 79.48 78.73 78.74 78.73 79.19 77.28 78.81 77.48
57.81 57.82 57.94 57.84 55.99 50.92 53.79 53.75 53.86 56.12 58.34 61.79 66.47 68.13 69.45 70.13 70.51 71.26 71.74 72.36 72.56 73.88 74.55 75.32 76.57 77.45 78.09 77.83 77.93 77.50 77.29 76.89 75.67 75.96 75.20 75.62 75.64 76.55 78.71 78.99 79.50 79.96 79.54 79.77 80.52 79.54 79.02 79.47 77.26
56.16 55.10 50.49 49.56 49.70 50.62 53.86 52.86 55.61 58.12 59.84 62.11 64.06 66.77 69.09 70.62 71.05 71.49 71.77 71.73 72.24 72.94 73.90 74.57 76.11 76.63 77.40 77.20 77.20 77.66 77.71 77.72 77.10 76.81 75.77 76.84 75.52 75.64 77.27 79.02 79.62 78.88 79.63 80.08 80.21 80.26 79.91 79.41 78.21
56.24 55.38 50.90 46.94 48.77 51.14 54.04 51.10 55.60 60.75 63.66 65.04 65.58 68.29 67.62 67.40 69.56 71.12 72.12 72.90 73.18 73.43 74.03 74.73 75.24 76.19 76.79 77.05 77.43 77.85 78.03 76.79 76.56 76.56 76.20 76.04 75.97 76.39 78.37 78.54 78.87 79.29 79.75 79.70 79.76 78.60 77.66 77.62 76.40
55.77 53.39 56.20 52.20 52.32 49.72 53.60 54.98 58.97 61.56 62.68 63.60 65.22 66.96 64.34 64.77 69.56 70.81 72.05 73.21 73.71 73.59 74.39 74.92 75.28 76.04 75.74 76.44 77.12 77.47 77.76 77.34 76.71 77.47 77.38 76.92 78.07 77.22 78.41 79.19 78.99 79.24 79.51 79.60 79.11 77.33 76.98 76.94 76.32
56.39 57.28 51.71 52.58 48.47 47.21 50.92 52.61 56.28 59.72 61.23 64.31 65.17 64.77 64.32 65.92 68.45 69.88 72.05 73.08 74.06 74.40 74.66 75.32 75.81 76.17 76.68 75.74 76.52 76.89 77.34 77.70 77.74 77.77 77.69 77.99 78.04 78.74 79.49 79.73 79.39 79.15 79.02 78.88 78.64 77.45 77.75 76.59 75.40
54.02 53.94 54.51 54.03 53.16 49.56 48.43 51.92 59.31 61.89 62.82 64.31 65.17 64.39 65.87 66.25 67.80 70.58 73.07 73.61 74.24 74.54 74.50 74.58 75.30 76.15 75.91 75.94 76.29 76.77 76.85 77.31 76.24 76.80 77.66 77.90 77.36 78.04 79.92 80.87 80.32 79.47 79.02 78.97 78.09 78.07 77.55 76.81 75.85
56.78 55.63 55.36 51.04 51.05 52.52 52.52 53.17 62.72 63.25 64.13 64.79 65.82 65.84 67.59 68.43 69.53 71.98 73.20 73.39 73.22 74.25 74.56 75.04 75.50 75.54 75.42 75.98 76.37 76.13 76.63 77.14 75.99 76.42 76.99 76.54 76.36 79.02 80.53 80.97 80.65 80.26 79.67 79.59 78.77 77.86 77.40 76.64 75.13
MSLP
1013.29 1013.04 1012.83 1011.98 1010.57 1008.33 1008.42 1008.96 1009.16 1009.47 1009.77 1010.32 1011.04 1011.05 1011.51 1012.19 1012.27 1013.07 1014.22 1015.23 1015.60 1016.07 1017.13 1018.10 1018.70 1018.83 1018.94 1018.95 1018.88 1018.96 1019.08 1019.13 1019.23 1019.40 1019.29 1019.42 1019.62 1019.70 1019.61 1019.70 1019.85 1019.80 1019.78 1019.88 1019.84 1019.97 1020.07 1020.08 1020.15
1013.17 1013.41 1012.80 1011.09 1009.09 1007.75 1008.68 1009.03 1009.06 1009.47 1010.11 1010.67 1011.13 1011.57 1011.86 1012.68 1013.34 1013.98 1014.69 1015.52 1015.77 1016.08 1016.60 1017.60 1018.93 1019.01 1019.16 1019.17 1019.21 1019.16 1019.20 1019.27 1019.51 1019.55 1019.59 1019.73 1019.82 1019.80 1019.86 1019.99 1020.00 1019.99 1020.13 1020.15 1020.10 1020.19 1020.26 1020.36 1020.47
1013.76 1013.52 1012.32 1009.82 1008.48 1008.60 1009.06 1009.45 1009.76 1010.17 1010.59 1010.53 1011.31 1011.60 1012.26 1013.38 1013.99 1014.13 1014.79 1015.56 1015.83 1016.21 1016.41 1018.00 1018.97 1019.12 1019.29 1019.38 1019.44 1019.33 1019.40 1019.52 1019.60 1019.67 1019.88 1019.85 1019.92 1019.92 1019.98 1020.15 1020.25 1020.27 1020.33 1020.31 1020.36 1020.42 1020.53 1020.62 1020.68
1013.46 1012.60 1011.14 1009.09 1008.97 1009.38 1009.48 1009.96 1010.18 1010.38 1010.64 1010.87 1011.22 1012.07 1013.49 1014.01 1014.21 1014.55 1015.41 1015.62 1015.95 1016.39 1016.47 1018.66 1019.08 1019.28 1019.37 1019.51 1019.48 1019.46 1019.52 1019.59 1019.75 1019.79 1019.97 1020.02 1020.03 1020.17 1020.23 1020.28 1020.59 1020.51 1020.52 1020.55 1020.57 1020.58 1020.78 1020.89 1021.02
1013.09 1011.38 1009.27 1008.73 1009.28 1009.51 1009.70 1010.12 1010.16 1010.15 1010.46 1010.75 1010.96 1012.11 1013.38 1014.57 1014.70 1015.16 1015.59 1015.69 1016.02 1016.36 1017.05 1018.36 1019.15 1019.31 1019.44 1019.55 1019.58 1019.63 1019.67 1019.80 1019.84 1019.89 1020.05 1020.13 1020.22 1020.29 1020.47 1020.49 1020.69 1020.68 1020.70 1020.79 1020.86 1020.94 1020.99 1021.10 1021.06
1011.17 1010.20 1008.18 1008.24 1009.19 1009.64 1009.86 1010.14 1010.14 1010.37 1010.85 1011.17 1011.43 1012.22 1013.86 1014.86 1014.99 1015.31 1015.60 1015.78 1016.16 1016.61 1017.20 1018.40 1019.28 1019.40 1019.47 1019.61 1019.73 1019.80 1019.82 1019.97 1020.06 1020.22 1020.20 1020.28 1020.55 1020.60 1020.74 1020.79 1020.78 1020.83 1020.92 1020.99 1021.09 1021.14 1021.24 1021.01 1021.13
1010.00 1008.46 1008.20 1008.24 1009.03 1009.59 1010.14 1010.26 1010.12 1010.34 1010.87 1011.15 1011.54 1012.09 1014.07 1014.63 1015.13 1015.52 1015.71 1016.06 1016.42 1017.25 1017.88 1018.39 1018.72 1019.28 1019.64 1019.78 1019.88 1019.98 1020.09 1020.22 1020.24 1020.33 1020.42 1020.58 1020.71 1020.78 1020.85 1020.92 1021.01 1020.99 1021.10 1021.17 1021.34 1021.36 1021.33 1021.16 1021.27
1009.48 1008.34 1008.04 1008.11 1008.46 1009.43 1010.06 1010.27 1010.41 1010.47 1011.14 1011.64 1011.58 1012.05 1013.54 1014.76 1015.40 1015.67 1015.97 1016.30 1016.98 1017.45 1017.70 1018.03 1018.79 1019.10 1018.98 1019.36 1020.03 1020.14 1020.19 1020.29 1020.38 1020.44 1020.52 1020.70 1020.74 1020.95 1021.00 1020.95 1021.17 1021.08 1021.13 1021.23 1021.32 1021.37 1021.46 1021.46 1021.54
1009.27 1007.23 1007.34 1007.84 1007.93 1009.14 1009.92 1010.13 1010.70 1010.95 1011.22 1011.58 1011.82 1011.94 1013.46 1014.97 1015.35 1015.62 1016.01 1016.50 1017.15 1017.48 1017.70 1017.78 1018.08 1018.63 1019.25 1019.36 1019.83 1020.11 1020.14 1020.25 1020.29 1020.45 1020.64 1020.60 1020.58 1020.72 1020.22 1021.12 1021.28 1021.28 1021.26 1021.36 1021.43 1021.39 1021.47 1021.44 1021.46
1007.85 1007.23 1007.76 1008.05 1008.12 1008.75 1009.50 1009.89 1010.49 1010.80 1011.03 1011.76 1012.56 1013.52 1014.41 1015.10 1015.28 1015.31 1015.65 1016.07 1016.76 1017.14 1017.49 1017.69 1017.92 1018.19 1018.77 1019.01 1019.47 1019.52 1019.32 1019.43 1019.39 1019.83 1020.14 1019.80 1020.51 1020.47 1020.25 1020.74 1021.10 1021.17 1021.28 1021.33 1021.46 1021.55 1021.61 1021.18 1020.88
1007.89 1007.48 1007.97 1008.02 1008.12 1008.63 1009.31 1009.94 1010.35 1010.55 1010.84 1011.45 1012.28 1013.48 1014.46 1014.83 1015.18 1015.08 1015.33 1015.66 1016.24 1017.19 1017.43 1017.95 1018.31 1018.67 1018.46 1018.81 1019.13 1018.92 1018.98 1019.14 1019.61 1019.96 1019.80 1019.80 1019.91 1019.88 1019.78 1019.94 1021.05 1020.62 1021.06 1020.72 1021.26 1021.28 1021.31 1021.21 1020.80
1006.79 1007.83 1007.92 1008.24 1008.65 1008.90 1009.21 1009.90 1010.19 1010.59 1010.67 1011.32 1012.30 1013.29 1014.08 1014.47 1014.70 1014.96 1015.26 1015.85 1016.35 1016.85 1017.20 1017.51 1017.84 1018.54 1018.40 1018.60 1018.71 1018.89 1019.02 1019.12 1019.06 1019.46 1020.01 1019.99 1019.63 1020.09 1020.25 1019.89 1020.08 1020.29 1020.36 1020.78 1020.54 1020.26 1020.77 1021.50 1021.74
1006.70 1007.52 1007.96 1008.39 1008.82 1008.83 1009.46 1009.73 1010.04 1010.72 1011.06 1011.39 1012.39 1013.21 1013.64 1014.00 1014.56 1014.88 1015.29 1015.79 1016.20 1016.48 1016.84 1017.16 1017.78 1018.57 1018.65 1018.95 1018.66 1018.71 1018.96 1019.12 1019.00 1019.59 1019.84 1019.76 1019.70 1019.87 1019.99 1020.09 1019.87 1019.94 1019.92 1019.89 1020.80 1020.60 1020.91 1021.41 1021.58
1007.27 1007.46 1007.74 1008.18 1008.67 1009.08 1009.22 1009.80 1009.93 1011.04 1011.21 1011.75 1012.53 1012.92 1013.22 1013.67 1014.13 1014.77 1015.26 1015.55 1015.88 1016.17 1016.51 1017.04 1017.66 1018.30 1018.47 1018.62 1018.94 1018.80 1018.83 1018.87 1019.11 1019.41 1019.53 1020.36 1019.91 1019.95 1019.77 1019.81 1019.78 1019.81 1019.77 1019.68 1019.91 1021.08 1021.26 1021.37 1021.37
1007.11 1006.94 1007.41 1007.91 1008.47 1008.96 1009.12 1009.66 1009.60 1010.81 1011.27 1011.76 1012.18 1012.68 1013.06 1013.53 1014.04 1014.49 1014.93 1015.25 1015.56 1015.94 1016.35 1016.79 1017.37 1017.69 1018.37 1018.73 1018.99 1018.82 1018.74 1018.53 1018.76 1019.07 1019.62 1019.94 1020.17 1020.36 1020.09 1019.69 1019.71 1019.53 1019.65 1020.04 1019.92 1020.24 1021.17 1020.59 1021.30
1006.47 1006.48 1005.93 1007.41 1008.07 1008.72 1008.73 1008.74 1009.76 1010.53 1010.89 1011.42 1011.93 1012.61 1013.10 1013.46 1013.79 1014.26 1014.74 1015.10 1015.47 1015.64 1016.30 1016.90 1017.10 1017.29 1017.87 1018.08 1018.63 1018.51 1018.57 1018.38 1018.51 1018.71 1019.03 1019.50 1019.61 1019.81 1019.83 1019.43 1019.26 1019.25 1019.53 1019.35 1020.20 1020.27 1020.41 1020.78 1020.69
1005.86 1005.03 1005.70 1006.51 1007.48 1007.71 1008.02 1008.14 1009.40 1010.01 1010.26 1010.90 1011.58 1012.10 1012.63 1013.16 1013.67 1013.98 1014.46 1014.88 1015.11 1015.72 1016.31 1016.92 1017.29 1017.41 1017.73 1018.20 1018.33 1018.48 1018.45 1018.55 1018.45 1018.59 1018.65 1019.00 1019.26 1019.41 1019.76 1019.62 1019.06 1019.62 1019.23 1018.99 1019.00 1019.07 1019.79 1020.06 1020.08
1004.85 1004.82 1005.29 1005.50 1006.59 1007.29 1007.19 1007.33 1008.70 1009.30 1009.60 1010.11 1010.91 1011.25 1011.85 1012.38 1012.82 1013.36 1013.89 1014.32 1014.69 1015.33 1016.05 1016.69 1017.20 1017.54 1017.89 1017.96 1018.40 1018.20 1018.15 1018.21 1018.46 1018.41 1018.26 1018.62 1018.73 1019.04 1019.27 1018.90 1019.13 1019.57 1019.34 1019.48 1019.41 1019.43 1019.75 1019.85 1019.77
1004.94 1004.86 1004.80 1005.33 1006.09 1006.45 1006.37 1006.64 1007.43 1008.46 1009.06 1009.35 1009.77 1010.34 1010.84 1011.37 1011.78 1012.38 1013.10 1013.66 1014.18 1014.84 1015.55 1016.20 1016.86 1017.33 1017.78 1017.94 1017.98 1017.99 1017.90 1017.99 1018.03 1017.95 1018.33 1018.61 1018.60 1018.71 1018.91 1018.62 1018.58 1019.14 1019.24 1019.36 1019.36 1019.26 1019.56 1019.47 1019.16
1004.64 1004.34 1004.24 1005.31 1005.87 1006.02 1005.86 1005.85 1006.35 1007.23 1007.80 1008.34 1008.81 1009.37 1009.82 1010.17 1010.74 1011.59 1012.20 1012.80 1013.45 1014.01 1014.87 1015.63 1016.21 1016.87 1017.38 1017.47 1017.66 1017.61 1017.65 1017.53 1017.43 1017.43 1017.76 1018.16 1018.45 1018.50 1018.54 1018.44 1018.36 1018.74 1018.84 1019.04 1019.17 1019.21 1019.09 1018.72 1018.74
1004.00 1003.57 1003.88 1004.20 1005.42 1005.59 1005.49 1004.89 1005.29 1006.04 1006.76 1007.40 1007.82 1008.21 1008.71 1009.24 1009.87 1010.55 1011.28 1011.70 1012.27 1012.98 1013.85 1014.76 1015.66 1016.28 1016.93 1017.12 1017.50 1017.69 1017.82 1017.84 1017.66 1017.48 1017.42 1017.24 1017.77 1017.90 1018.05 1018.08 1018.39 1018.43 1018.54 1018.40 1018.79 1018.86 1018.92 1018.50 1017.98
1002.71 1004.06 1004.07 1004.37 1004.29 1003.65 1004.63 1003.21 1003.91 1004.54 1005.56 1006.27 1006.59 1007.12 1007.53 1008.12 1008.88 1009.41 1009.98 1010.73 1011.30 1012.16 1013.06 1014.05 1014.96 1015.63 1016.24 1016.79 1016.90 1017.20 1017.00 1016.75 1016.54 1016.88 1016.78 1016.89 1017.22 1017.37 1017.48 1017.64 1017.74 1017.78 1017.97 1017.90 1018.12 1018.21 1018.44 1018.37 1017.72
1004.07 1004.06 1003.93 1004.08 1003.81 1003.70 1003.69 1003.40 1003.07 1003.83 1004.14 1004.71 1005.40 1005.76 1006.23 1006.95 1007.69 1008.39 1008.95 1009.56 1010.49 1011.43 1012.31 1013.20 1014.16 1014.89 1015.37 1015.97 1016.21 1016.49 1016.73 1016.42 1016.69 1016.64 1016.83 1016.97 1016.82 1016.99 1016.94 1017.11 1017.32 1017.35 1017.21 1017.34 1017.61 1018.00 1018.06 1018.06 1018.22
1004.24 1004.08 1004.10 1004.05 1003.52 1002.71 1002.51 1002.78 1001.62 1002.28 1002.77 1002.99 1003.95 1004.61 1005.30 1005.88 1006.69 1007.55 1008.37 1009.02 1009.65 1010.65 1011.68 1012.39 1013.41 1014.35 1014.98 1015.49 1016.01 1016.18 1016.08 1016.27 1016.28 1016.51 1016.52 1016.39 1016.18 1016.15 1016.30 1016.52 1016.84 1017.07 1016.91 1016.91 1017.20 1017.18 1017.66 1017.68 1017.79
1003.85 1003.07 1002.47 1002.48 1002.32 1001.73 1002.96 1002.96 1001.38 1002.33 1002.84 1002.86 1003.07 1003.86 1004.65 1005.33 1005.93 1006.65 1007.58 1008.41 1009.22 1009.90 1010.96 1011.96 1012.82 1013.61 1014.31 1014.88 1015.34 1015.71 1015.98 1016.18 1016.26 1016.47 1016.32 1016.12 1015.67 1015.59 1015.71 1016.05 1016.30 1016.35 1016.16 1016.42 1016.54 1016.76 1017.02 1017.12 1017.15
1002.77 1002.26 1001.71 1001.65 1001.19 1001.21 1003.07 1001.85 1001.38 1002.21 1002.70 1003.08 1003.50 1003.72 1004.07 1004.62 1005.24 1005.72 1006.61 1007.86 1008.81 1009.59 1010.45 1011.26 1011.94 1012.89 1013.34 1013.64 1014.14 1014.82 1015.49 1015.71 1015.81 1016.02 1015.99 1015.90 1015.66 1015.40 1015.54 1015.75 1015.68 1015.77 1015.87 1015.85 1016.01 1016.30 1016.15 1016.38 1016.43
1002.42 1002.58 1002.07 1001.68 1001.90 1001.89 1000.97 1001.39 1001.76 1001.90 1002.21 1002.68 1002.73 1003.14 1003.59 1004.31 1005.01 1005.79 1006.19 1007.09 1008.38 1009.12 1009.90 1010.68 1011.33 1011.94 1012.44 1012.97 1014.07 1014.64 1014.93 1015.32 1015.07 1015.54 1015.75 1015.77 1016.02 1015.81 1015.57 1015.50 1015.52 1015.38 1015.49 1015.61 1015.72 1015.78 1015.98 1016.18 1016.16
1002.57 1002.10 1002.15 1001.99 1001.24 1000.98 1000.38 1000.73 999.94 1001.18 1001.56 1002.02 1002.34 1002.72 1003.50 1004.29 1005.07 1005.54 1006.18 1006.77 1007.62 1008.57 1009.35 1010.28 1010.89 1011.28 1011.91 1012.72 1013.27 1013.94 1014.36 1014.68 1014.84 1015.21 1015.33 1015.37 1015.47 1015.53 1015.42 1015.37 1015.35 1015.16 1015.20 1015.41 1015.57 1015.40 1015.52 1016.01 1015.89
1002.47 1002.15 1002.04 1001.36 1000.87 1000.30 1000.08 999.55 999.34 1000.48 1001.02 1001.41 1001.92 1002.59 1003.52 1004.31 1005.00 1005.64 1006.22 1006.81 1007.31 1008.13 1008.75 1009.56 1010.44 1010.99 1011.86 1012.14 1012.67 1013.35 1013.82 1014.07 1014.64 1014.55 1014.65 1014.72 1014.99 1015.02 1014.94 1014.87 1014.74 1014.57 1014.82 1015.05 1015.16 1015.12 1015.31 1015.50 1015.44
1001.04 1000.89 1001.08 1000.98 1000.98 1000.87 1000.18 999.43 999.96 1000.10 1000.66 1000.97 1001.65 1002.72 1003.75 1004.56 1005.28 1005.93 1006.68 1007.32 1007.86 1008.36 1008.80 1009.64 1010.22 1010.67 1010.87 1011.51 1012.72 1013.33 1013.60 1013.89 1014.00 1013.90 1014.21 1014.53 1014.47 1014.36 1014.39 1014.33 1014.40 1014.03 1014.13 1014.57 1014.66 1014.59 1014.52 1014.77 1014.91
Wind_Speed
6 1 4 4 6 2 9 7 3 11 8 7 7 4 10 10 8 9 16 10 15 13 15 13 10 8 7 7 7 8 8 9 8 8 9 9 8 8 9 11 12 12 12 12 12 13 13 12 13
4 1 4 4 3 8 9 5 8 8 10 11 9 7 5 11 10 14 13 14 13 13 14 15 9 9 7 6 6 8 7 7 9 7 7 8 9 9 10 10 11 11 11 12 12 13 12 13 12
4 1 4 5 5 10 10 10 8 9 10 6 5 8 3 6 13 9 17 15 13 11 11 16 8 8 7 5 5 7 7 8 9 8 9 10 9 11 11 10 11 10 11 11 12 12 11 12 12
4 5 6 3 13 9 12 9 8 9 7 4 10 14 10 12 8 8 15 14 12 11 12 13 9 9 7 6 6 6 6 9 10 8 11 10 10 9 11 11 10 10 11 10 10 10 9 9 7
3 3 3 11 13 10 9 8 6 6 5 7 7 11 12 9 10 15 14 11 12 11 13 13 9 9 8 8 5 6 8 7 8 9 8 11 11 11 9 11 10 10 9 10 8 8 6 5 6
5 4 6 10 12 8 8 6 7 9 8 10 15 15 10 9 14 13 12 11 10 10 11 11 9 8 8 8 6 8 9 10 9 8 9 10 10 10 10 10 10 9 9 8 7 6 5 2 6
6 2 8 10 11 8 6 3 6 9 9 10 6 13 9 10 12 11 11 10 10 10 10 10 11 9 8 8 7 8 11 10 9 9 8 10 8 10 9 9 8 8 10 7 6 6 8 8 10
4 2 4 4 7 10 8 6 8 9 13 9 6 7 12 14 12 12 10 10 10 10 9 8 9 7 8 10 8 9 8 8 9 9 8 8 8 8 8 8 7 9 8 6 6 5 6 8 8
5 2 7 8 3 9 11 10 9 9 9 7 4 10 17 16 14 12 11 10 9 7 8 9 9 8 6 5 9 9 8 8 9 10 6 7 5 5 10 9 7 6 7 6 5 4 3 5 6
5 8 8 5 6 11 10 8 9 11 10 14 14 16 17 15 13 12 11 11 10 10 8 8 6 8 8 5 5 5 6 6 5 4 5 4 7 3 7 6 5 6 5 5 4 3 2 9 6
1 8 4 6 8 11 12 11 6 11 5 13 15 15 15 14 11 10 9 9 10 8 7 8 8 5 7 5 5 4 4 5 5 5 4 5 4 4 3 5 2 1 4 3 4 7 2 4 3
3 7 4 7 8 10 9 11 11 7 8 12 15 15 14 12 12 10 9 8 9 9 8 10 9 7 6 6 5 4 3 4 4 5 5 3 4 3 2 3 3 4 6 5 5 4 7 4 1
7 6 7 9 7 8 11 8 9 9 9 14 15 13 13 11 11 8 7 8 8 9 9 9 8 7 6 5 4 4 3 5 5 5 5 2 2 1 2 3 3 1 3 5 2 2 4 3 5
5 6 7 7 9 9 8 9 8 9 12 16 15 13 12 11 11 10 8 8 9 8 9 10 9 8 8 6 5 4 4 4 3 4 5 3 4 2 2 3 3 2 3 1 3 3 2 2 1
2 3 6 6 7 7 7 8 4 13 15 17 16 13 11 10 10 9 9 8 9 9 9 10 9 10 9 7 6 5 5 6 5 5 5 6 5 4 4 3 4 3 3 4 5 5 2 3 1
5 5 3 7 5 7 9 9 9 15 14 16 15 12 11 11 11 9 9 8 8 7 8 8 8 10 10 8 7 5 5 4 4 4 4 6 6 5 4 4 4 2 4 4 5 4 5 5 4
5 6 0 6 8 4 8 10 11 14 14 15 14 14 12 11 11 10 10 9 9 8 8 9 9 8 8 7 6 6 5 5 4 5 5 6 7 7 5 6 4 4 5 5 5 5 3 4 4
8 5 2 3 9 8 5 7 12 14 13 13 15 14 13 13 14 13 13 12 11 10 10 10 9 9 8 6 6 5 5 5 6 6 6 6 7 7 6 5 5 4 5 6 6 7 7 5 4
13 8 6 3 5 6 6 2 12 14 13 12 15 14 15 15 14 13 13 13 13 12 13 13 12 11 8 7 7 6 7 6 6 6 8 8 8 7 7 6 5 5 5 6 7 6 6 7 5
8 8 5 5 4 7 3 5 8 14 14 15 14 14 15 16 15 14 13 13 14 14 14 14 14 14 12 9 7 6 4 6 6 5 5 8 10 8 8 8 6 4 5 6 7 6 6 7 3
10 7 5 5 7 6 5 10 10 13 12 13 15 14 15 16 15 15 14 15 15 15 16 15 15 14 13 11 7 6 6 6 6 7 7 8 9 9 9 8 6 6 6 7 3 6 6 6 5
2 1 3 5 8 2 7 4 11 13 14 15 16 16 16 16 16 15 16 16 16 14 13 15 15 16 14 13 10 10 8 7 5 6 5 5 6 8 9 8 8 7 6 7 6 6 6 6 7
7 2 3 3 7 8 11 7 10 7 13 17 17 17 18 17 17 17 16 14 14 13 13 13 15 15 14 14 13 11 11 8 7 6 6 7 7 8 9 8 8 8 7 8 9 8 8 7 7
8 8 5 4 8 10 5 8 8 10 10 15 17 17 15 15 15 15 14 14 13 13 13 13 15 14 15 15 14 14 11 10 7 7 7 6 7 7 8 8 8 8 9 9 8 10 10 8 9
9 10 8 7 8 2 6 6 5 6 4 3 6 9 11 13 14 15 15 14 12 14 15 13 14 15 15 15 15 15 14 12 12 10 9 8 6 7 8 8 8 8 9 9 8 9 8 10 8
16 15 9 5 5 5 4 6 4 2 2 4 6 9 8 7 10 13 15 14 14 14 16 16 17 15 17 19 18 15 13 10 10 10 8 8 8 7 7 8 9 10 10 8 8 7 7 8 8
9 13 9 13 6 9 3 4 8 6 6 8 13 11 8 6 6 5 8 13 14 15 16 17 17 17 17 17 13 13 12 13 10 10 8 8 9 9 10 11 11 9 9 9 7 7 7 7 8
11 5 10 10 11 9 6 4 2 12 12 13 13 13 9 6 5 6 7 9 12 16 15 16 15 16 13 13 12 11 12 13 12 10 11 10 11 11 11 10 10 9 9 9 8 7 6 7 8
10 13 11 12 10 9 8 8 6 12 15 16 15 11 10 5 4 3 4 6 9 11 13 14 14 15 10 10 10 9 9 10 6 11 11 9 11 11 11 10 10 7 8 8 8 8 7 9 8
13 18 20 12 16 11 10 7 4 9 15 15 16 13 10 6 6 6 6 7 8 9 10 10 11 11 11 10 7 8 8 7 10 10 11 11 11 11 11 10 10 7 8 9 9 8 7 8 8
Wind_Direction
205 113 299 256 230 204 63 73 85 118 121 90 100 22 51 33 358 76 127 130 131 134 128 152 138 131 103 99 102 110 107 103 124 135 127 124 117 124 113 103 106 107 103 105 103 105 103 98 103
94 172 225 282 276 77 71 40 86 98 93 111 93 113 57 76 68 120 133 141 143 134 143 137 137 121 113 115 106 104 107 119 124 119 133 121 125 142 110 111 111 111 101 103 110 107 99 99 100
137 339 285 282 55 54 75 64 79 106 133 128 103 59 41 78 121 120 118 140 136 137 135 108 128 126 118 109 109 118 122 119 115 117 108 112 138 112 109 110 97 109 107 108 111 110 112 115 101
172 204 222 81 84 66 88 80 89 122 129 65 123 95 83 84 121 122 137 141 137 141 119 120 135 131 125 107 116 108 95 115 130 131 117 122 104 113 116 105 104 113 106 104 109 111 116 125 120
269 243 146 89 81 90 87 81 91 89 85 126 129 107 105 88 113 131 143 147 131 137 122 131 134 129 136 112 98 120 105 113 113 120 104 100 114 118 109 118 115 110 108 111 97 100 105 122 141
220 266 124 89 90 91 90 86 88 81 100 103 113 114 88 115 136 140 142 136 132 121 110 126 130 138 119 95 104 108 102 108 111 114 108 104 111 113 127 121 112 115 108 107 88 70 46 63 154
298 304 75 88 105 98 100 94 86 98 110 107 133 108 108 140 131 140 141 132 124 115 129 153 145 137 122 105 90 103 108 113 112 110 114 104 108 114 102 109 122 121 116 110 98 72 61 75 108
277 259 112 77 80 98 122 92 108 96 92 124 151 134 144 137 148 140 142 135 124 144 138 132 153 128 157 143 103 109 110 107 113 109 108 113 116 114 116 130 119 113 120 117 88 72 65 84 105
257 186 91 87 79 127 138 124 91 114 123 79 107 90 121 142 153 150 146 141 143 143 162 157 156 153 135 130 121 139 128 124 136 136 106 162 94 125 154 94 112 102 121 114 111 96 72 107 90
273 66 52 37 90 134 142 127 123 152 113 113 104 105 128 148 158 159 160 156 153 158 157 145 164 160 151 151 145 120 150 127 106 107 131 152 109 103 72 102 115 118 116 135 136 132 121 244 117
107 55 54 75 82 131 126 126 126 136 140 144 138 139 148 153 162 163 160 154 153 141 160 160 159 189 160 145 178 167 154 145 133 138 174 100 158 150 156 110 96 143 173 88 182 161 182 297 9
101 74 76 94 121 127 129 135 132 67 116 143 138 147 155 165 160 163 156 157 147 167 169 165 156 164 188 158 190 153 160 180 165 131 169 146 197 122 148 145 148 199 130 186 219 158 113 191 196
49 75 92 104 139 130 135 134 126 83 138 141 138 151 158 161 154 154 149 153 170 174 168 166 155 165 166 182 163 165 173 194 156 165 149 159 188 109 190 145 209 249 160 142 150 211 88 196 188
72 80 101 123 129 143 135 133 153 119 138 142 155 166 161 158 157 155 170 172 176 178 171 164 176 170 184 187 184 183 184 178 170 158 156 187 263 180 185 194 210 198 222 184 157 164 259 182 224
196 137 132 138 156 146 148 139 125 142 151 156 168 170 168 174 170 177 177 179 181 177 172 178 184 179 188 194 195 206 199 177 190 191 180 193 217 205 281 208 239 231 190 253 226 211 220 276 155
235 235 213 136 182 140 238 106 127 159 163 167 175 175 185 192 196 190 191 187 182 182 175 187 189 189 180 193 187 213 203 206 196 196 195 205 222 241 236 222 234 254 267 254 209 267 248 213 206
203 7 353 147 194 164 238 112 148 169 173 171 183 186 194 196 207 206 210 207 199 194 182 189 195 195 181 184 199 212 193 215 213 217 221 193 229 239 245 248 252 240 272 273 281 284 275 247 257
345 304 194 270 167 214 198 126 148 174 180 175 186 190 192 199 208 205 209 210 205 199 196 193 199 198 194 185 209 217 220 225 213 245 232 215 227 230 246 250 257 258 296 335 292 315 303 283 263
298 289 260 122 139 224 226 257 159 175 186 190 186 193 191 203 201 203 205 209 211 203 203 199 196 197 200 201 206 214 223 221 235 233 237 243 233 232 232 254 244 231 256 270 277 282 288 295 324
269 268 209 123 157 233 166 242 183 177 196 196 196 193 202 199 197 200 209 205 212 207 208 207 206 196 200 202 213 233 243 242 251 244 247 228 233 224 239 250 265 260 269 263 279 276 277 296 285
228 278 146 30 160 219 252 235 191 199 200 202 209 202 200 205 205 202 209 214 206 206 203 207 206 203 205 218 205 212 242 249 238 231 237 219 225 226 230 246 251 264 269 267 243 245 263 287 283
242 39 203 155 225 58 227 108 192 184 198 204 209 210 209 203 205 206 202 210 210 209 203 203 202 201 199 200 214 221 240 243 231 242 257 264 230 239 238 244 247 248 261 290 265 238 255 260 280
67 148 126 232 266 279 169 259 108 186 201 204 207 207 211 207 203 205 210 204 212 195 201 198 197 201 205 198 214 207 224 236 237 242 251 250 264 243 250 241 246 250 250 250 254 257 252 263 270
146 147 152 218 268 247 88 272 150 161 218 195 195 210 212 208 204 206 209 209 208 198 199 198 193 201 199 202 205 219 228 229 246 236 255 242 241 228 214 239 248 261 269 258 252 256 252 245 250
215 208 230 221 200 280 90 237 294 122 122 204 170 188 208 214 215 204 203 204 206 201 198 199 193 197 199 201 208 211 219 222 232 239 249 262 250 242 233 232 240 252 251 264 275 273 264 262 253
212 244 246 221 235 136 150 231 128 116 180 190 173 153 155 192 196 214 195 197 198 201 198 199 189 199 200 204 205 206 215 222 227 233 257 276 269 263 261 256 250 252 262 266 269 269 277 303 283
192 234 278 286 220 266 160 188 208 205 179 169 169 151 134 120 148 183 198 184 192 198 198 199 195 201 207 203 208 212 206 221 234 236 247 244 258 276 270 261 258 257 260 257 261 254 270 273 275
269 274 210 231 268 261 197 253 134 175 164 164 164 165 142 136 169 186 185 185 190 201 203 199 200 208 201 213 199 209 213 219 228 227 237 256 266 267 265 259 248 251 257 257 248 255 253 266 277
184 221 240 293 243 261 235 220 125 175 171 171 171 158 151 154 163 218 215 192 194 197 200 199 202 216 192 198 198 200 218 221 229 229 237 241 257 261 261 253 242 233 256 248 241 250 269 264 275
273 225 226 221 223 245 297 298 117 173 176 181 165 155 144 147 149 143 137 159 177 190 189 193 203 218 201 178 174 194 226 209 222 235 237 243 254 257 254 249 248 231 234 245 240 243 254 252 252